Regional Weather Roundup
Issued by NWS Wakefield, VA

Home | Current Version | Previous Version | Graphics & Text | Print | Product List | Glossary On
Versions: 1 2 3 4 5 6 7 8 9 10 11 12 13 14 15 16 17 18 19 20 21 22 23 24 25 26 27
000
ASUS41 KAKQ 201015
RWRAKQ

REGIONAL WEATHER ROUNDUP
NATIONAL WEATHER SERVICE WAKEFIELD VA
500 AM EST SAT JAN 20 2018

Note: "fair" indicates few or no clouds below 12,000 feet with no
significant weather and/or obstructions to visibility. * = Denotes
station may not report precipitation (e.g., rain,snow,etc.),
thunder or fog.

VAZ042-051-052>054-056-201100-
NORTHERN VIRGINIA

CITY           SKY/WX    TMP DP  RH WIND       PRES   REMARKS
WASH NATIONAL  FAIR      31  20  63 S3        30.01R
DULLES         FAIR      21  16  81 SE3       29.99R
FORT BELVOIR   FAIR      22  16  79 CALM        N/A
QUANTICO       NOT AVBL
FREDERICKSBRG* FAIR      25  19  78 CALM      29.99S
STAFFORD*      FAIR      23  16  75 CALM      30.04R
WARRENTON      FAIR      18  13  81 CALM      29.99R
CULPEPER*      FAIR      20  15  79 NE3       30.01R
MANASSAS*      FAIR      19  16  88 CALM      30.00S
LEESBURG*      FAIR      27  21  80 W6        29.99S
WINCHESTER     FAIR      36   9  32 W7        30.00S
FRONT ROYAL*   FAIR      36   9  32 SE5       29.98R
LURAY*         FAIR      37   9  30 SW9       30.00R
$$

VAZ048-049-060>072-079>083-201100-
CENTRAL AND SOUTH CENTRAL VIRGINIA

CITY           SKY/WX    TMP DP  RH WIND       PRES   REMARKS
RICHMOND       FAIR      35  10  35 W7        30.03F
CHESTERFIELD*  NOT AVBL
PETERSBURG*    FAIR      34  12  40 SW5       30.06S
HANOVER        FAIR      37   8  30 SW7       30.04S
TAPPAHANNOCK*  FAIR      27  17  64 S3        30.02S
QUINTON*       FAIR      32  15  50 SW5       30.04S
CHARLOTTSVILLE FAIR      48   6  18 VRB5      29.99S
GORDONSVILLE*  FAIR      26  17  68 W5        30.00R
ORANGE*        FAIR      28  14  54 CALM      30.00S
LOUISA*        FAIR      35   7  30 SW5       30.04F
BUMPASS*       FAIR      32   8  36 SW6       30.01S
FARMVILLE*     FAIR      31  11  42 SW5       30.04S
CREWE*         FAIR      36  12  37 SW5       30.05S
FORT PICKETT*  FAIR      31  15  51 SW6       30.06S
CHASE CITY*    FAIR      29  18  65 CALM      30.09S
CLARKSVILLE*   FAIR      32  21  64 W5        30.10R
SOUTH HILL*    FAIR      34  23  62 SW7       30.14S
LAWRENCEVILLE* FAIR      35  19  54 CALM      30.08R
EMPORIA*       FAIR      27  21  80 CALM      30.10S
$$

VAZ088>098-201100-
SOUTHEAST VIRGINIA

CITY           SKY/WX    TMP DP  RH WIND       PRES   REMARKS
NORFOLK        FAIR      33  22  63 SW10      30.06F WCI  25
VIRGINIA BEACH FAIR      34  20  56 SW7       30.06F
NORFOLK NAVAL  FAIR      39  22  50 SW7       30.08S
WEST POINT*    FAIR      32  16  50 SW3       30.06S
SALUDA*        FAIR      33  15  47 CALM      30.03S
NEWPORT NEWS   FAIR      35  22  58 SW8       30.06S
LANGLEY AFB    FAIR      38  22  53 SW12      30.05F
FORT EUSTIS    FAIR      37  20  50 SW3       30.04S
WILLIAMSBURG*  FAIR      36  19  51 SW7       30.07S
HR EXEC AP*    FAIR      33  22  63 SW5       30.09S
FRANKLIN*      FAIR      35  22  58 SW5       30.09S
US460-WAKEFLD  FAIR      33  22  63 SW5       30.07S
$$

VAZ020-022-025-037-045-201100-
WEST CENTRAL AND SOUTHWEST VIRGINIA

CITY           SKY/WX    TMP DP  RH WIND       PRES   REMARKS
STAUNTON*      FAIR      39  11  32 SW13      30.04R
WAYNESBORO*    FAIR      42   8  25 SW13G18   30.02R
HOT SPRINGS VA FAIR      32  15  49 W29G37    30.00S WCI  17
LYNCHBURG      FAIR      37   4  25 SW7       30.06S
DANVILLE       FAIR      30  19  63 W7        30.12R
SOUTH BOSTON*  FAIR      21  16  79 SW3       30.11R
MARTINSVILLE   FAIR      18  14  83 CALM      30.13S
ROANOKE        FAIR      36   7  29 NW6       30.12S
BLACKSBURG     FAIR      29  10  45 CALM      30.15R
DUBLIN*        FAIR      36  11  35 W10G16    30.15R
MARION*        FAIR      31   6  35 W16       30.17S WCI  20
HILLSVILLE*    FAIR      32   8  36 W3        30.11R
RICHLANDS*     CLOUDY    34  17  50 SW10G17   30.17S
WISE*          CLOUDY    34  23  64 SW13      30.17R WCI  25
ABINGDON*      CLOUDY    28  14  57 CALM      30.21S
$$

MDZ021>025-VAZ099-100-201100-
SOUTHERN MARYLAND AND THE DELMARVA PENINSULA

CITY           SKY/WX    TMP DP  RH WIND       PRES   REMARKS
PATUXENT RIVER FAIR      36  12  37 SW7       30.00
BAY BRIDGE APT FAIR      28  19  69 S3        29.99R
LEONARDTOWN    FAIR      34  14  44 SW5       30.01S
DOVER          FAIR      30  20  67 SW5       29.98S
GEORGETOWN     FAIR      33  16  49 SW6       30.00S
EASTON         FAIR      32  16  51 SW3       30.03S
CAMBRIDGE        N/A     27  23  86 SE6       30.00F
SALISBURY      FAIR      32  18  56 SW8       30.01S
OCEAN CITY     FAIR      34  20  56 W6        30.02R
WALLOPS ISLAND FAIR      39  15  37 SW7       30.03S
ACCOMACK*      FAIR      38  19  44 SW6       30.04S
$$

NCZ012>017-030>032-201100-
NORTH CENTRAL AND EASTERN NORTH CAROLINA

CITY           SKY/WX    TMP DP  RH WIND       PRES   REMARKS
ROANOKE RAPIDS FAIR      30  23  74 SW9       30.11S
RALEIGH        FAIR      29  22  75 SW6       30.13F
ELIZABETH CITY FAIR      33  30  88 SW8       30.12S
AHOSKIE*       FAIR      31  23  70 CALM      30.12S
EDENTON*       NOT AVBL
CURRITUCK*     FAIR      35  27  72 SW5       30.11F
KILL DEVIL HLS FAIR      35  27  71 CALM      30.12S
MANTEO         FAIR      32  28  85 SW3       30.14R
CAPE HATTERAS  FAIR      44  28  53 W7        30.16R
TARBORO*       NOT AVBL
GOLDSBORO      FAIR      32  23  70 CALM      30.14S
WASHINGTON     FAIR      32  24  73 CALM      30.16S
GREENVILLE     FAIR      32  23  69 SW5       30.16S
NEW BERN       FAIR      35  25  66 SW3       30.18R
WILMINGTON     FAIR      37  24  59 SW7       30.20R
$$

VAZ048-201100-
ELSEWHERE

CITY           SKY/WX    TMP DP  RH WIND       PRES   REMARKS
HARRISBURG PA  FAIR      24  20  84 CALM      29.92F
BALTIMORE      FAIR      26  18  71 SW7       29.98R
ANNAPOLIS      FAIR      30  22  72 CALM      29.99R
ANDREWS AFB    FAIR      27  14  59 SW6       29.98R
PHILADELPHIA   FAIR      32  19  58 SW6       29.96F
HENDERSON NC   FAIR      27  18  69 SW7       30.10S
GREENSBORO     FAIR      28  20  71 W5        30.10F
ROCKY MOUNT    NOT AVBL
$$

VAZ100-201100-
MARINE

STATION/POSITION TIME  TEMP    WIND        PRES    WAVE   SWELL
                       AIR SEA DIR/SP/G            HT/PER HT/PER
                 (UTC) (F)     (DEG/KT/KT) (MB)    (FT/S) (FT/S)
BRANDYWINE LGT   0936   36     240/ 14/ 15 1015.6S
CAPE MAY NJ      0936   34 33  230/  5/  7 1015.0F
LEWES DE         0936   35 34  240/  6/  9 1015.4S
15NM E FENWICK I 0950   40 40  220/ 14/ 16 1016.4R   2/ 4   2/11
OCEAN-CITY-INLET 0936   36 34  260/  5/  6 1016.7R
WACHAPREAGUE VA  0936   32 34  220/  2/  3 1017.2R
THOMAS POINT MD  1000   36 32  210/  9/  9   N/A
GOOSES REEF MD   1000   35 32  230/  6/  8 1016.1    0
COVE POINT MD    0936   37     200/  4/  5 1016.6S
SOLOMONS ISLAND  0936   35 34  240/  5/  6 1015.8S
BISHOPS HEAD MD  0936   33 32  200/  9/  9 1016.6S
PINEY POINT MD   0942          270/  2/  2   N/A
POTOMAC MD       1000   35 33  320/  4/  6 1015.7
CAMBRIDGE MD     0936   28 32              1016.7R
LEWISETTA VA     0936   37 32  250/  6/  8 1016.5S
RAPPAHANNOCK LGT 0942          190/ 12/ 12 1017.8S
STINGRAY PT      1000   35 33  250/  8/  8 1019.9    0
YORK RVR RNG VA  0936   39     250/ 15/ 16 1017.9F
YORKTOWN VA      0942   39 35  230/  8/ 12 1017.3S
DOMINION TERM VA 0942   37     240/  5/  7 1018.4F
KIPTOPEKE VA     0942      34  240/  8/ 10   N/A
CAPE HENRY VA    0942   40     220/ 11/ 16   N/A
WILLOUBY STN VA  0942          240/ 12/ 13 1017.8F
S CRANEY ISL VA  0942   39     220/  6/ 11 1018.0F
CAPE HENRY BUOY  1000      38                N/A     2/11   2/11
1ST LANDING BUOY 1000   37 35  250/ 12/ 12 1018.0    1
CAPE CHARLES BUO 0951      38                N/A     2/11
64NM E OF VA BCH 0950   49 49  240/ 17/ 19 1019.2F   4/10   2/10
DUCK PIER NC     0942   39 39  230/ 10/ 12 1019.3F
44100 DUCK FRF   0945      43                N/A     2/10   2/11
44056 DUCK FRF   1000      39                N/A     2/11   2/11
OREGON INLET NC  0942   37 38  210/  7/  8 1020.5R
HATTERAS NC      0942   45 46  250/  8/ 11 1020.8R
DIAMOND SHLS NC  1000   58 71  260/ 19/ 23 1021.4
CAPE LOOKOUT NC  1000          240/  7/  9 1022.0R
$$




USA.gov is the U.S. government's official web portal to all federal, state and local government web resources and services.